This is the latest recevied weather packets stored in our database for station/object KO6MEX-13. If no packets are shown the sender has not sent any weather packets the latest 1 day(s).
| Time | Temp. | Humidity | Pressure | Rain* | Wind** | Luminosity | Snow |
|---|---|---|---|---|---|---|---|
| 1778057024 | 10.56° C | 93% | 1021.8 hPa | 0 mm | - | 0 W/m² | - |
| 1778056418 | 10.56° C | 93% | 1021.8 hPa | 0 mm | - | 0 W/m² | - |
| 1778055812 | 10.56° C | 93% | 1021.9 hPa | 0 mm | - | 0 W/m² | - |
| 1778054298 | 11.11° C | 93% | 1022 hPa | 0 mm | - | 0 W/m² | - |
| 1778053995 | 11.11° C | 92% | 1022 hPa | 0 mm | - | 0 W/m² | - |
| 1778053692 | 11.11° C | 92% | 1021.8 hPa | 0 mm | - | 0 W/m² | - |
| 1778053086 | 11.11° C | 92% | 1021.7 hPa | 0 mm | - | 0 W/m² | - |
| 1778052178 | 11.11° C | 92% | 1021.8 hPa | 0 mm | - | 0 W/m² | - |
| 1778051574 | 11.11° C | 92% | 1021.7 hPa | 0 mm | - | 0 W/m² | - |
| 1778050665 | 11.67° C | 90% | 1021.5 hPa | 0 mm | - | 0 W/m² | - |
| 1778050362 | 11.67° C | 90% | 1021.5 hPa | 0 mm | - | 0 W/m² | - |
| 1778049754 | 12.22° C | 89% | 1021.6 hPa | 0 mm | - | 0 W/m² | - |
| 1778049452 | 12.22° C | 89% | 1021.4 hPa | 0 mm | - | 0 W/m² | - |
| 1778049149 | 12.22° C | 88% | 1021.4 hPa | 0 mm | - | 0 W/m² | - |
| 1778048848 | 12.22° C | 88% | 1021.4 hPa | 0 mm | - | 0 W/m² | - |
| 1778047938 | 12.22° C | 89% | 1021.3 hPa | 0 mm | - | 0 W/m² | - |
| 1778047333 | 12.22° C | 88% | 1021.3 hPa | 0 mm | - | 0 W/m² | - |
| 1778047030 | 12.22° C | 88% | 1021.5 hPa | 0 mm | - | 0 W/m² | - |
| 1778046727 | 12.22° C | 87% | 1021.2 hPa | 0 mm | - | 0 W/m² | - |
| 1778046424 | 12.78° C | 87% | 1021.4 hPa | 0 mm | - | 0 W/m² | - |
| 1778046120 | 12.78° C | 87% | 1021.4 hPa | 0 mm | - | 0 W/m² | - |
| 1778045516 | 12.22° C | 88% | 1021.2 hPa | 0 mm | - | 0 W/m² | - |
| 1778045214 | 12.22° C | 87% | 1021.1 hPa | 0 mm | - | 0 W/m² | - |
| 1778044912 | 12.78° C | 87% | 1021 hPa | 0 mm | - | 0 W/m² | - |
| 1778044609 | 12.78° C | 86% | 1021.2 hPa | 0 mm | - | 0 W/m² | - |
* Rain latest hour (hover to see other rain measurements)
** Current wind speed in m/s (hover to see current wind gust speed)